Weather History for EICK - December, 2012

Change the Weather History Date:

Friday, December 28, 2012

  Actual Average Record
Temperature  
Mean Temperature 46 °F -  
Max Temperature 51 °F 46 °F 51 °F (2006)
Min Temperature 42 °F 37 °F 28 °F (2000)
Degree Days  
Heating Degree Days 18    
Moisture  
Dew Point 50 °F    
Average Humidity 99    
Maximum Humidity 100    
Minimum Humidity 88    
Precipitation  
Precipitation 0.08 in 0.19 in - ()
Sea Level Pressure  
Sea Level Pressure 29.62 in    
Wind  
Wind Speed 22 mph ()    
Max Wind Speed 34 mph    
Max Gust Speed 55 mph    
Visibility 4.6 miles    
Events Rain    
Averages and records for this station are not official NWS values.
T = Trace of Precipitation, MM = Missing Value Source: Averaged Metar Reports

Daily Weather History Graph

Daily Weather History Graph

Search for Another Location

Airport or City:

Trip Planner

Search our weather history database for the weather conditions in past years. The results will help you decide how hot, cold, wet, or windy it might be!

Date:

Astronomy

Dec. 28, 2012 Rise Set
Actual Time 8:41 AM GMT 4:30 PM GMT
Civil Twilight 8:00 AM GMT 5:10 PM GMT
Nautical Twilight 7:17 AM GMT 5:54 PM GMT
Astronomical Twilight 6:36 AM GMT 6:35 PM GMT
Moon 5:01 PM GMT (12/28) 8:20 AM GMT (12/28)
Length of Visible Light 9h 10m
Length of Day
7h 48m
Full, 100% of the Moon is Illuminated
Dec 28
Full
Jan 5
Last Quarter
Jan 11
New
Jan 18
First Quarter
Jan 27
Full

Hourly Weather History & Observations

Time (GMT) Temp. Dew Point Humidity Pressure Visibility Wind Dir Wind Speed Gust Speed Precip Events Conditions
12:00 AM 49 °F 49 °F 99% 29.87 in 4 mi SSW 17.9 mph - - Rain Light Rain
12:00 AM 48.2 °F 48.2 °F 100% 29.86 in 3.7 mi SSW 17.3 mph - N/A Rain Light Rain
12:30 AM 48.2 °F 48.2 °F 100% 29.86 in 1.9 mi SSW 12.7 mph - N/A Rain Light Rain
1:00 AM 50.0 °F 50.0 °F 100% 29.83 in 2.5 mi SSW 13.8 mph - N/A Rain Light Rain
1:30 AM 50.0 °F 50.0 °F 100% 29.83 in 1.9 mi SW 19.6 mph - N/A Rain Light Rain
2:00 AM 51.8 °F 51.8 °F 100% 29.83 in 2.2 mi SW 19.6 mph - N/A Rain Light Rain
2:30 AM 51.8 °F 51.8 °F 100% 29.80 in 6.2 mi SW 20.7 mph - N/A   Overcast
3:00 AM 51.8 °F 51.8 °F 100% 29.80 in 5.0 mi SW 21.9 mph - N/A   Overcast
3:30 AM 51.8 °F 51.8 °F 100% 29.77 in 5.0 mi SSW 23.0 mph 34.5 mph N/A   Overcast
4:00 AM 51.8 °F 51.8 °F 100% 29.77 in 3.7 mi SSW 25.3 mph 40.3 mph N/A   Overcast
4:30 AM 51.8 °F 51.8 °F 100% 29.77 in 2.2 mi SW 24.2 mph - N/A Rain Light Rain
5:00 AM 50.0 °F 50.0 °F 100% 29.77 in 5.6 mi SSW 24.2 mph - N/A   Overcast
5:30 AM 50.0 °F 50.0 °F 100% 29.74 in 5.0 mi SSW 23.0 mph - N/A Rain Light Rain
6:00 AM 51 °F 51 °F 99% 29.76 in 5 mi SSW 24.6 mph - - Rain Light Rain
6:00 AM 50.0 °F 50.0 °F 100% 29.74 in 5.0 mi SSW 25.3 mph 36.8 mph N/A Rain Light Rain
6:30 AM 50.0 °F 50.0 °F 100% 29.74 in 5.0 mi SSW 26.5 mph - N/A Rain Light Rain
7:00 AM 50.0 °F 50.0 °F 100% 29.74 in 2.8 mi SSW 24.2 mph - N/A Rain Light Rain
7:30 AM 50.0 °F 50.0 °F 100% 29.71 in 2.8 mi SSW 24.2 mph 39.1 mph N/A Rain Light Rain
8:00 AM 50.0 °F 50.0 °F 100% 29.71 in 6.2 mi SSW 20.7 mph - N/A Rain Light Rain
8:30 AM 50.0 °F 50.0 °F 100% 29.71 in 6.2 mi SSW 19.6 mph - N/A Rain Light Rain
9:00 AM 50.0 °F 50.0 °F 100% 29.71 in 3.1 mi SSW 21.9 mph - N/A Rain Light Rain
9:30 AM 50.0 °F 50.0 °F 100% 29.68 in 3.1 mi SSW 27.6 mph 40.3 mph N/A Rain Light Rain
10:00 AM 50.0 °F 50.0 °F 100% 29.68 in 4.3 mi SSW 27.6 mph 40.3 mph N/A Rain Light Rain
10:30 AM 51.8 °F 51.8 °F 100% 29.68 in 4.3 mi SSW 27.6 mph 40.3 mph N/A   Mostly Cloudy
11:00 AM 51.8 °F 51.8 °F 100% 29.68 in 6.2 mi SSW 25.3 mph - N/A   Mostly Cloudy
12:00 PM 51 °F 51 °F 98% 29.66 in 9 mi SSW 26.8 mph - -   Partly Cloudy
12:00 PM 51.8 °F 50.0 °F 94% 29.65 in 6.2 mi SSW 27.6 mph 40.3 mph N/A   Mostly Cloudy
12:30 PM 50.0 °F 50.0 °F 100% 29.62 in 6.2 mi South 24.2 mph 41.4 mph N/A   Mostly Cloudy
1:00 PM 51.8 °F 50.0 °F 94% 29.62 in 6.2 mi South 25.3 mph - N/A   Mostly Cloudy
1:30 PM 51.8 °F 50.0 °F 94% 29.59 in 6.2 mi SSW 28.8 mph 43.7 mph N/A   Mostly Cloudy
2:00 PM 51.8 °F 50.0 °F 94% 29.56 in 6.2 mi SSW 26.5 mph 40.3 mph N/A   Mostly Cloudy
2:30 PM 50.0 °F 50.0 °F 100% 29.56 in 6.2 mi South 27.6 mph 41.4 mph N/A   Mostly Cloudy
3:00 PM 51.8 °F 50.0 °F 94% 29.53 in 6.2 mi South 25.3 mph 38.0 mph N/A   Mostly Cloudy
3:30 PM 51.8 °F 48.2 °F 88% 29.50 in 6.2 mi SSW 31.1 mph 43.7 mph N/A   Mostly Cloudy
4:00 PM 50.0 °F 50.0 °F 100% 29.50 in 3.1 mi SSW 31.1 mph 46.0 mph N/A Rain Light Rain
4:30 PM 50.0 °F 50.0 °F 100% 29.47 in 3.1 mi South 32.2 mph 47.2 mph N/A Rain Light Rain
5:00 PM 50.0 °F 50.0 °F 100% 29.47 in 5.6 mi South 31.1 mph 46.0 mph N/A Rain Light Rain
5:30 PM 50.0 °F 50.0 °F 100% 29.44 in 5.6 mi South 31.1 mph 55.2 mph N/A Rain Light Rain
6:00 PM 51 °F 51 °F 98% 29.46 in 6 mi South 33.6 mph - - Rain Light Rain
6:00 PM 50.0 °F 50.0 °F 100% 29.44 in 5.6 mi South 33.4 mph 51.8 mph N/A Rain Light Rain
6:30 PM 50.0 °F 50.0 °F 100% 29.44 in 5.6 mi South 31.1 mph 49.5 mph N/A Rain Light Rain
7:00 PM 50.0 °F 50.0 °F 100% 29.42 in 5.0 mi South 32.2 mph 50.6 mph N/A Rain Light Rain
7:30 PM 50.0 °F 50.0 °F 100% 29.42 in 3.7 mi South 32.2 mph 46.0 mph N/A Rain Light Rain
8:00 PM 51.8 °F 51.8 °F 100% 29.42 in 2.5 mi SSW 31.1 mph 47.2 mph N/A Rain Light Rain
8:30 PM 50.0 °F 50.0 °F 100% 29.42 in 3.1 mi SSW 29.9 mph 44.9 mph N/A Rain Light Rain
9:00 PM 50.0 °F 50.0 °F 100% 29.39 in 3.7 mi SSW 27.6 mph 43.7 mph N/A Rain Light Rain
9:30 PM 50.0 °F 50.0 °F 100% 29.39 in 3.7 mi SSW 32.2 mph 48.3 mph N/A Rain Light Rain
10:00 PM 48.2 °F 48.2 °F 100% 29.42 in 3.1 mi SW 27.6 mph - N/A Rain Light Rain
10:30 PM 48.2 °F 48.2 °F 100% 29.39 in 5.0 mi SSW 21.9 mph - N/A Rain Light Rain
11:00 PM 50.0 °F 50.0 °F 100% 29.42 in 3.1 mi SSW 21.9 mph - N/A Rain Light Rain
11:30 PM 50.0 °F 48.2 °F 94% 29.39 in 5.0 mi SSW 21.9 mph - N/A   Mostly Cloudy